[[{"header":{"parameterUnit":"m.s-1","parameterCategory":1,"la1":30.2991,"la2":30.254,"lo1":-89.0895,"lo2":-89.0444,"dy":0.0017,"dx":0.0017,"nx":28,"ny":28,"refTime":"2023-09-04T21:00:00:Z","depth":0,"parameterNumber":2,"parameterNumberName":"U-component_of_WINDS"},"data":[0,0,0,0,0,0,0,0,0,0,0,0,0,0,0,0,0,0,0,0,0,0,0,0,0,0,0,0,0,0,0,0,0,0,0,0,0,0,0,0,0,0,0,0,0,0,0,0,0,0,0,0,0,0,0,0,0,0,-4.1059,-4.106,0,-4.1141,-4.1142,-4.1143,-4.1114,-4.1113,-4.1111,-4.1109,-4.119,-4.1194,-4.1198,0,0,0,0,0,0,0,0,0,0,0,0,0,-4.0874,-4.0877,-4.1059,-4.106,-4.1061,-4.1141,-4.1142,-4.1143,-4.1115,-4.1112,-4.111,-4.1108,-4.1189,-4.1194,-4.1198,0,0,0,0,0,0,0,0,0,0,0,0,0,-4.0955,-4.0878,-4.1059,-4.1057,-4.1057,-4.1141,-4.1142,-4.1144,-4.1115,-4.1112,-4.111,-4.1107,-4.1188,-4.1193,-4.1199,-4.1289,0,0,-4.1217,-4.1219,0,0,0,0,0,0,0,0,-4.095,-4.0962,-4.1056,-4.1057,-4.1058,-4.1115,-4.1107,-4.1192,-4.1116,-4.1093,-4.1109,-4.1106,-4.1167,-4.1175,-4.1196,-4.1293,-4.1296,-4.1217,-4.1221,-4.1223,-4.1225,0,0,0,0,0,0,0,-4.0945,-4.0958,-4.1091,-4.1057,-4.1058,-4.105,-4.1059,-4.1123,-4.1144,-4.1095,-4.1093,-4.1103,-4.1167,-4.119,-4.1198,-4.1298,-4.1217,-4.1222,-4.1226,-4.1228,-4.147,-4.1473,0,0,0,0,0,0,-4.0939,-4.0953,-4.1089,-4.1094,-4.0996,-4.1056,-4.1065,-4.1099,-4.1144,-4.1148,-4.1105,-4.1102,-4.1182,-4.1191,-4.12,-4.1306,-4.1223,-4.1229,-4.1232,-4.1467,-4.1471,-4.1474,0,0,0,0,0,0,-4.0935,-4.0951,-4.1086,-4.1023,-4.104,-4.1062,-4.11,-4.1102,-4.1125,-4.1152,-4.1155,-4.1125,-4.118,-4.1192,-4.1267,-4.1309,-4.1231,-4.1236,-4.1463,-4.1468,-4.1472,-4.152,0,0,0,0,0,0,-4.093,-4.095,-4.0986,-4.1024,-4.1043,-4.1152,-4.1103,-4.1106,-4.1136,-4.1131,-4.1171,-4.1175,-4.1179,-4.1258,-4.1273,-4.1315,-4.1241,-4.146,-4.1466,-4.1471,-4.1515,-4.1526,-4.1535,0,0,0,0,0,-4.0923,-4.0996,-4.0987,-4.1004,-4.1088,-4.1154,-4.1165,-4.1169,-4.1139,-4.1174,-4.1191,-4.1174,-4.1303,-4.1266,-4.1282,-4.1327,-4.1457,-4.1464,-4.147,-4.151,-4.1524,-4.1535,0,0,0,0,0,0,-4.0961,-4.1001,-4.0992,-4.1079,-4.1114,-4.1149,-4.1193,-4.1183,-4.1226,-4.122,-4.1222,-4.1231,-4.1307,-4.1325,-4.1284,-4.1415,-4.1375,-4.1385,-4.14,-4.1413,-4.1423,-4.1416,-4.1246,0,0,0,0,0,-4.0979,-4.1031,-4.1063,-4.1137,-4.1155,-4.1171,-4.12,-4.12,-4.1235,-4.1249,-4.1272,-4.1306,-4.1353,-4.1385,-4.1431,-4.1519,-4.1525,-4.1557,-4.1567,-4.1575,-4.1583,-4.1628,-4.1642,-4.1496,-4.1496,-4.1495,0,0,-4.1018,-4.1046,-4.1078,-4.1145,-4.1172,-4.1223,-4.1184,-4.1241,-4.1278,-4.1258,-4.1329,-4.1347,-4.1385,-4.1466,-4.1502,-4.1483,-4.1625,-4.1584,-4.159,-4.1593,-4.1636,-4.165,-4.1662,-4.15,-4.1499,-4.1499,0,0,-4.1114,-4.1142,-4.1205,-4.1232,-4.1273,-4.1284,-4.1299,-4.1336,-4.1347,-4.1419,-4.1404,-4.1449,-4.1532,-4.1559,-4.1583,-4.1689,-4.1673,-4.1704,-4.1755,-4.1799,-4.181,-4.182,-4.1855,-4.1868,-4.1712,-4.1712,-4.1712,0,-4.1156,-4.1234,-4.1239,-4.1296,-4.1325,-4.131,-4.1372,-4.1399,-4.1452,-4.1471,-4.145,-4.1552,-4.1577,-4.1663,-4.1688,-4.171,-4.1725,-4.1698,-4.1809,-4.1819,-4.1828,-4.1861,-4.1874,-4.1715,-4.1715,-4.1715,-4.1714,0,-4.1282,-4.1337,-4.1383,-4.1435,-4.1469,-4.1529,-4.1541,-4.1575,-4.1572,-4.1584,-4.1656,-4.1686,-4.1736,-4.1757,-4.1755,-4.1842,-4.1828,-4.1808,-4.1767,-4.1845,-4.1876,-4.1889,-4.172,-4.1719,-4.1718,-4.1717,0,0,-4.1403,-4.1456,-4.1473,-4.1495,-4.1539,-4.158,-4.1639,-4.1689,-4.1716,-4.1754,-4.1801,-4.1872,-4.1853,-4.188,-4.1881,-4.192,-4.1998,-4.1895,-4.1895,-4.191,-4.2092,-4.2105,-4.212,-4.199,-4.1992,-4.1994,-4.2088,0,-4.1499,-4.1603,-4.1608,-4.1702,-4.175,-4.1737,-4.1787,-4.1819,-4.1832,-4.1874,-4.1889,-4.1937,-4.191,-4.1926,-4.1965,-4.198,-4.2034,-4.1974,-4.2031,-4.2033,-4.2019,-4.2136,-4.2151,-4.2238,-4.21,-4.2102,-4.2104,0,-4.1626,-4.1667,-4.1765,-4.18,-4.1821,-4.1867,-4.1911,-4.1953,-4.1988,-4.1994,-4.2025,-4.202,-4.2078,-4.2038,-4.2117,-4.2076,-4.21,-4.2111,-4.2115,-4.2117,-4.2071,-4.2139,-4.2266,-4.2278,-4.2124,-4.2122,-4.2121,0,-4.17,-4.178,-4.1849,-4.1869,-4.1912,-4.1944,-4.1963,-4.1996,-4.2024,-4.2064,-4.2082,-4.2127,-4.2152,-4.2186,-4.2193,-4.2163,-4.2271,-4.2232,-4.2276,-4.2275,-4.2297,-4.2295,-4.2425,-4.2318,-4.2317,-4.2317,-4.2317,0,-4.1806,-4.1866,-4.1882,-4.1924,-4.199,-4.1995,-4.206,-4.2077,-4.2105,-4.2149,-4.2141,-4.2182,-4.2189,-4.2232,-4.2238,-4.23,-4.2312,-4.2317,-4.2317,-4.2316,-4.2315,-4.233,-4.2323,-4.2321,-4.232,-4.2319,-4.2319,0,-4.1899,-4.1912,-4.1985,-4.202,-4.203,-4.2077,-4.2106,-4.2145,-4.2158,-4.2213,-4.2226,-4.2245,-4.2294,-4.2305,-4.2364,-4.2367,-4.2441,-4.2437,-4.2429,-4.2427,-4.247,-4.2464,-4.2612,-4.263,-4.2513,-4.2514,-4.2515,0,-4.1964,-4.2009,-4.2049,-4.2078,-4.2098,-4.2145,-4.2174,-4.2181,-4.2212,-4.2254,-4.2288,-4.2336,-4.2374,-4.2453,-4.2471,-4.2515,-4.251,-4.2559,-4.2517,-4.2513,-4.2507,-4.2503,-4.2506,-4.2566,-4.2567,-4.2568,-4.2569,0,-4.2077,-4.2081,-4.2124,-4.2169,-4.2204,-4.224,-4.2273,-4.2297,-4.2308,-4.2343,-4.2393,-4.2423,-4.2482,-4.2529,-4.2573,-4.2592,-4.2581,-4.2583,-4.2595,-4.2592,-4.2585,-4.2586,-4.2447,-4.2579,-4.2578,-4.2577,-4.2577,-4.2576,-4.2156,-4.2195,-4.2228,-4.2275,-4.2301,-4.2333,-4.2371,-4.2388,-4.243,-4.2478,-4.248,-4.2534,-4.2566,-4.2624,-4.2645,-4.2686,-4.2671,-4.2689,-4.2693,-4.2697,-4.2699,-4.2581,-4.2695,-4.2695,-4.2694,-4.2694,-4.2694,0,-4.2266,-4.2287,-4.233,-4.2377,-4.2414,-4.2403,-4.2439,-4.247,-4.2518,-4.2549,-4.2587,-4.2643,-4.2689,-4.2711,-4.2755,-4.2784,-4.278,-4.2795,-4.2791,-4.2795,-4.2712,-4.2695,-4.2797,-4.2797,-4.2797,-4.2797,-4.2797,-4.2797,-4.2327,-4.2391,-4.2399,-4.2476,-4.2496,-4.2549,-4.257,-4.2598,-4.2623,-4.2686,-4.2724,-4.2738,-4.2765,-4.2811,-4.2851,-4.2856,-4.2871,-4.2888,-4.289,-4.2812,-4.2801,-4.2791,-4.2775,-4.2892,-4.2892,-4.297,-4.297,-4.2971]},{"header":{"parameterUnit":"m.s-1","parameterCategory":1,"la1":30.2991,"la2":30.254,"lo1":-89.0895,"lo2":-89.0444,"dy":0.0017,"dx":0.0017,"nx":28,"ny":28,"refTime":"2023-09-04T21:00:00:Z","depth":0,"parameterNumber":3,"parameterNumberName":"V-component_of_WINDS"},"data":[0,0,0,0,0,0,0,0,0,0,0,0,0,0,0,0,0,0,0,0,0,0,0,0,0,0,0,0,0,0,0,0,0,0,0,0,0,0,0,0,0,0,0,0,0,0,0,0,0,0,0,0,0,0,0,0,0,0,3.0668,3.0668,0,3.0681,3.0681,3.0681,3.0621,3.0619,3.0618,3.0616,3.0628,3.063,3.0631,0,0,0,0,0,0,0,0,0,0,0,0,0,3.0587,3.0589,3.0668,3.0668,3.0668,3.0681,3.0681,3.0681,3.0621,3.0619,3.0617,3.0615,3.0627,3.0629,3.0632,0,0,0,0,0,0,0,0,0,0,0,0,0,3.0614,3.059,3.0668,3.064,3.0637,3.0681,3.0681,3.0682,3.0622,3.0619,3.0617,3.0614,3.0626,3.0629,3.0632,3.0703,0,0,3.0641,3.0642,0,0,0,0,0,0,0,0,3.0612,3.0617,3.0644,3.0642,3.0639,3.0647,3.0657,3.0689,3.0623,3.0628,3.0616,3.0613,3.0636,3.0638,3.0646,3.0703,3.0704,3.0641,3.0643,3.0644,3.0645,0,0,0,0,0,0,0,3.0611,3.0616,3.0673,3.0644,3.0641,3.0626,3.0626,3.0663,3.0646,3.0627,3.0623,3.0625,3.0634,3.0644,3.0646,3.0704,3.0641,3.0644,3.0645,3.0647,3.0819,3.0821,0,0,0,0,0,0,3.0613,3.0615,3.0672,3.0673,3.0619,3.0629,3.063,3.0647,3.0646,3.0643,3.0627,3.0622,3.064,3.0643,3.0646,3.0728,3.0644,3.0647,3.0649,3.0816,3.0819,3.0822,0,0,0,0,0,0,3.0611,3.0618,3.0672,3.0643,3.0648,3.0633,3.0653,3.0649,3.0658,3.0646,3.0643,3.064,3.0638,3.0642,3.0689,3.0727,3.0648,3.0651,3.0813,3.0817,3.0821,3.0892,0,0,0,0,0,0,3.0609,3.0618,3.0645,3.0644,3.065,3.0715,3.0655,3.0651,3.0663,3.0657,3.0657,3.0655,3.0636,3.0685,3.0692,3.073,3.0653,3.0809,3.0814,3.0819,3.0886,3.0898,3.0908,0,0,0,0,0,3.0607,3.0665,3.0647,3.0654,3.0684,3.0717,3.0721,3.0699,3.0667,3.0693,3.0686,3.0655,3.0723,3.069,3.0698,3.0737,3.0806,3.0813,3.0819,3.0881,3.0896,3.0908,0,0,0,0,0,0,3.067,3.0664,3.0644,3.0704,3.0712,3.0707,3.074,3.0716,3.0732,3.0725,3.0697,3.0698,3.0749,3.0748,3.0712,3.0805,3.0759,3.0767,3.0803,3.0817,3.0828,3.0826,3.0656,0,0,0,0,0,3.0691,3.072,3.0713,3.0766,3.0771,3.0755,3.0769,3.0752,3.0758,3.0761,3.0757,3.0764,3.0787,3.0802,3.0823,3.0887,3.0885,3.0917,3.0928,3.0938,3.0944,3.0976,3.099,3.0843,3.0843,3.0843,0,0,3.0734,3.0735,3.0754,3.0778,3.0782,3.0812,3.0758,3.0791,3.0812,3.0766,3.0809,3.0807,3.0813,3.0869,3.0893,3.0869,3.0985,3.0946,3.0953,3.0954,3.0984,3.0998,3.1011,3.0847,3.0847,3.0846,0,0,3.0828,3.0832,3.0876,3.0881,3.0889,3.0878,3.0889,3.0888,3.0885,3.0929,3.0894,3.0919,3.0959,3.0964,3.0973,3.107,3.1041,3.1077,3.1134,3.1166,3.1178,3.1188,3.122,3.1233,3.1084,3.1084,3.1085,0,3.088,3.0924,3.0901,3.0937,3.0948,3.0909,3.0952,3.0959,3.0972,3.098,3.0954,3.1004,3.1005,3.1061,3.1084,3.1093,3.1103,3.1076,3.1178,3.1188,3.1197,3.1228,3.124,3.1089,3.1088,3.1088,3.1087,0,3.0987,3.1018,3.1052,3.1067,3.1082,3.1122,3.1105,3.1123,3.1105,3.1097,3.1142,3.1142,3.1162,3.1174,3.1157,3.1227,3.1212,3.1183,3.1135,3.1216,3.1244,3.1256,3.1095,3.1093,3.1092,3.1091,0,0,3.1118,3.1121,3.1134,3.114,3.1146,3.1168,3.1206,3.1226,3.1241,3.1253,3.1282,3.1318,3.1291,3.13,3.1283,3.1311,3.1386,3.1278,3.1278,3.1296,3.1462,3.1482,3.1496,3.1368,3.1371,3.1372,3.1461,0,3.1208,3.1273,3.1255,3.1319,3.1346,3.131,3.1343,3.135,3.1344,3.1365,3.1358,3.1383,3.1347,3.1352,3.1378,3.1371,3.1418,3.1365,3.1394,3.1395,3.1391,3.1512,3.1533,3.1616,3.1472,3.1474,3.1475,0,3.1321,3.1337,3.1405,3.1406,3.1417,3.1446,3.1463,3.1485,3.1491,3.1485,3.1496,3.1473,3.151,3.1464,3.1513,3.1477,3.1488,3.1487,3.149,3.1489,3.1438,3.1512,3.1643,3.1654,3.1493,3.1491,3.149,0,3.1408,3.1447,3.1492,3.1498,3.1501,3.1522,3.1525,3.1529,3.1542,3.1556,3.1564,3.1583,3.1593,3.1607,3.159,3.1559,3.1641,3.1594,3.1635,3.1636,3.1652,3.1651,3.1783,3.1664,3.1663,3.1663,3.1663,0,3.1509,3.1551,3.1531,3.1558,3.1604,3.1583,3.1629,3.1626,3.1631,3.1657,3.1627,3.1652,3.1629,3.1651,3.1638,3.1679,3.1685,3.1679,3.1675,3.1681,3.1681,3.1686,3.1679,3.1666,3.1666,3.1665,3.1664,0,3.1612,3.16,3.1647,3.1646,3.1647,3.1681,3.168,3.1705,3.1697,3.173,3.1737,3.1725,3.175,3.1735,3.176,3.1751,3.1805,3.1793,3.1802,3.1798,3.1839,3.1835,3.1978,3.1995,3.1866,3.1867,3.1868,0,3.1676,3.1708,3.1711,3.1726,3.173,3.1756,3.1769,3.175,3.1765,3.1775,3.1799,3.1822,3.1838,3.188,3.1873,3.1892,3.1879,3.1928,3.1882,3.1886,3.1877,3.1875,3.1877,3.1937,3.1938,3.1939,3.194,0,3.179,3.1783,3.1804,3.1823,3.184,3.1854,3.1865,3.1879,3.186,3.1878,3.1904,3.1917,3.1943,3.1965,3.1982,3.1983,3.1958,3.1956,3.1966,3.197,3.1974,3.197,3.1825,3.1952,3.1951,3.195,3.1949,3.1949,3.1874,3.19,3.1906,3.193,3.1937,3.1949,3.1972,3.1968,3.1989,3.2009,3.1997,3.2026,3.2032,3.2051,3.2056,3.2078,3.2058,3.2074,3.2077,3.208,3.2085,3.1972,3.2082,3.2081,3.2081,3.2081,3.208,0,3.1985,3.1987,3.201,3.2027,3.2046,3.2023,3.2034,3.2051,3.2078,3.2086,3.2103,3.2132,3.2154,3.215,3.2169,3.2188,3.2177,3.2193,3.219,3.2191,3.2103,3.2091,3.2202,3.2202,3.2202,3.2202,3.2202,3.2202,3.2045,3.2087,3.2081,3.2126,3.2128,3.2158,3.2166,3.2176,3.2182,3.2216,3.2234,3.2232,3.2234,3.2254,3.2272,3.227,3.2278,3.2298,3.2292,3.2209,3.2197,3.2186,3.2174,3.2301,3.2301,3.2378,3.2378,3.2379]}]]